Date String (YYYY-MM-DD hh:mm:ss) UTC,Instrument flags,absolute air pressure of the measurement (hPa),sample flow rate (lpm),inlet stack bypass flow (lpm),air temperature of the measurement (°C),ambient temperature measured by the external sensor (°C),aerosol sample conditioner tube jacket temperature (°C),OPC LED temperature (°C),internal box temperature (°C),relative humidity of the measurement (%),span deviation,mass concentration of particles derived from Lorenz-Mie calculation of OPC scattering (μg/m³),mass concentration of particles derived from Lorenz-Mie calculation of OPC scattering (μg/m³),mass concentration of particles derived from Lorenz-Mie calculation of OPC scattering (μg/m³)
DateTimeUTC,F1_M11,P_M11,Q1_M11,Q2_M11,T1_M11,T2_M11,T3_M11,T4_M11,T5_M11,U1_M11,ZSPAN_M11,X2_M11,X0_M11,X1_M11
2023-12-28 19:00:00,SystemResetWarning,0833.7,5.00,000.00,021.1,020.6,000.0,029.2,022.6,8.6,0000.0,0000.78,0006.41,0000.47
2023-12-28 19:01:00,SystemResetWarning,0833.7,5.00,000.00,021.1,020.6,000.0,029.3,022.6,8.8,0000.0,0000.79,0005.69,0000.48
2023-12-28 19:02:00,SystemResetWarning,0833.7,5.00,000.00,021.1,020.6,000.0,029.3,022.7,8.6,0000.0,0000.84,0004.86,0000.48
2023-12-28 19:03:00,SystemResetWarning,0833.6,5.00,000.00,021.2,020.7,000.0,029.3,022.7,8.4,0000.0,0000.84,0003.76,0000.48
2023-12-28 19:04:00,SystemResetWarning,0833.6,5.00,000.00,021.2,020.7,000.0,029.3,022.7,8.5,0000.0,0000.86,0003.31,0000.49
2023-12-28 19:05:00,SystemResetWarning,0833.6,5.00,000.00,021.2,020.7,000.0,029.3,022.7,8.4,0000.0,0000.85,0002.72,0000.49
2023-12-28 19:06:00,SystemResetWarning,0833.6,5.00,000.00,021.2,020.7,000.0,029.4,022.7,8.3,0000.0,0000.83,0001.66,0000.49
2023-12-28 19:07:00,SystemResetWarning,0833.6,5.00,000.00,021.2,020.7,000.0,029.4,022.7,8.4,0000.0,0000.82,0001.54,0000.49
2023-12-28 19:08:00,SystemResetWarning,0833.6,5.00,000.00,021.3,020.7,000.0,029.4,022.8,8.4,0000.0,0000.80,0001.44,0000.49
2023-12-28 19:09:00,SystemResetWarning,0833.7,5.00,000.00,021.3,020.8,000.0,029.4,022.8,8.4,0000.0,0000.80,0001.47,0000.49
2023-12-28 19:10:00,SystemResetWarning,0833.6,4.99,000.00,021.3,020.8,000.0,029.4,022.8,8.7,0000.0,0000.78,0001.49,0000.49
2023-12-28 19:11:00,SystemResetWarning,0833.6,5.00,000.00,021.3,020.8,000.0,029.5,022.8,8.8,0000.0,0000.78,0001.50,0000.48
2023-12-28 19:12:00,SystemResetWarning,0833.6,5.00,000.00,021.3,020.8,000.0,029.5,022.8,8.8,0000.0,0000.77,0001.47,0000.48
2023-12-28 19:13:00,SystemResetWarning,0833.6,5.00,000.00,021.3,020.8,000.0,029.5,022.8,8.8,0000.0,0000.72,0002.34,0000.48
2023-12-28 19:14:00,SystemResetWarning,0833.6,5.00,000.00,021.4,020.8,000.0,029.5,022.8,8.8,0000.0,0000.72,0002.61,0000.48
2023-12-28 19:15:00,SystemResetWarning,0833.5,5.00,000.00,021.4,020.9,000.0,029.5,022.8,8.6,0000.0,0000.73,0003.53,0000.48
2023-12-28 19:16:00,SystemResetWarning,0833.5,5.00,000.00,021.4,020.9,000.0,029.5,022.9,8.7,0000.0,0000.73,0004.37,0000.48
2023-12-28 19:17:00,SystemResetWarning,0833.5,5.00,000.00,021.4,020.9,000.0,029.6,022.9,8.7,0000.0,0000.74,0004.43,0000.48
2023-12-28 19:18:00,SystemResetWarning,0833.4,5.00,000.00,021.4,020.9,000.0,029.6,022.9,8.7,0000.0,0000.77,0004.48,0000.48
2023-12-28 19:19:00,SystemResetWarning,0833.5,5.01,000.00,021.4,020.9,000.0,029.6,022.9,8.7,0000.0,0000.76,0004.46,0000.48
2023-12-28 19:20:00,SystemResetWarning,0833.5,5.00,000.00,021.5,020.9,000.0,029.6,022.9,8.6,0000.0,0000.77,0004.44,0000.49
2023-12-28 19:21:00,SystemResetWarning,0833.5,5.01,000.00,021.5,020.9,000.0,029.6,022.9,8.7,0000.0,0000.82,0005.50,0000.50
2023-12-28 19:22:00,SystemResetWarning,0833.5,5.00,000.00,021.5,020.9,000.0,029.6,023.0,8.6,0000.0,0000.88,0005.77,0000.53
2023-12-28 19:23:00,SystemResetWarning,0833.5,5.01,000.00,021.5,021.0,000.0,029.6,023.0,8.4,0000.0,0000.91,0005.83,0000.55
2023-12-28 19:24:00,SystemResetWarning,0833.5,5.00,000.00,021.5,021.0,000.0,029.7,023.0,8.5,0000.0,0000.93,0005.44,0000.55
2023-12-28 19:25:00,SystemResetWarning,0833.4,5.00,000.00,021.5,021.0,000.0,029.7,023.1,8.5,0000.0,0000.96,0004.75,0000.57
2023-12-28 19:26:00,SystemResetWarning,0833.4,5.00,000.00,021.6,021.0,000.0,029.7,023.1,8.5,0000.0,0000.99,0004.89,0000.59
2023-12-28 19:27:00,SystemResetWarning,0833.5,4.99,000.00,021.6,021.0,000.0,029.7,023.1,8.7,0000.0,0000.97,0003.72,0000.60
2023-12-28 19:28:00,SystemResetWarning,0833.5,4.99,000.00,021.6,021.1,000.0,029.7,023.1,8.8,0000.0,0000.99,0004.02,0000.61
2023-12-28 19:29:00,SystemResetWarning,0833.5,4.99,000.00,021.6,021.1,000.0,029.7,023.2,8.9,0000.0,0001.02,0004.08,0000.62
2023-12-28 19:30:00,SystemResetWarning,0833.5,5.00,000.00,021.7,021.1,000.0,029.8,023.2,8.7,0000.0,0001.06,0004.22,0000.63
2023-12-28 19:31:00,SystemResetWarning,0833.5,5.01,000.00,021.7,021.1,000.0,029.8,023.2,8.7,0000.0,0001.11,0005.03,0000.64
2023-12-28 19:32:00,SystemResetWarning,0833.6,5.01,000.00,021.7,021.1,000.0,029.8,023.2,8.6,0000.0,0001.08,0004.72,0000.64
2023-12-28 19:33:00,SystemResetWarning,0833.5,4.99,000.00,021.7,021.2,000.0,029.8,023.2,8.5,0000.0,0001.06,0004.31,0000.63
2023-12-28 19:34:00,SystemResetWarning,0833.6,4.99,000.00,021.7,021.2,000.0,029.8,023.2,8.5,0000.0,0001.06,0004.29,0000.64
2023-12-28 19:35:00,SystemResetWarning,0833.5,5.00,000.00,021.7,021.2,000.0,029.9,023.2,8.5,0000.0,0001.03,0004.27,0000.64
2023-12-28 19:36:00,SystemResetWarning,0833.5,5.01,000.00,021.7,021.2,000.0,029.9,023.2,8.4,0000.0,0001.05,0004.36,0000.63
2023-12-28 19:37:00,SystemResetWarning,0833.5,5.00,000.00,021.8,021.2,000.0,029.9,023.3,8.5,0000.0,0001.02,0003.64,0000.62
2023-12-28 19:38:00,SystemResetWarning,0833.4,5.01,000.00,021.8,021.3,000.0,029.9,023.3,8.6,0000.0,0001.04,0004.83,0000.62
2023-12-28 19:39:00,SystemResetWarning,0833.4,5.00,000.00,021.8,021.3,000.0,029.9,023.3,8.6,0000.0,0001.07,0004.77,0000.62
2023-12-28 19:40:00,SystemResetWarning,0833.4,4.99,000.00,021.8,021.3,000.0,029.9,023.3,8.4,0000.0,0001.06,0004.76,0000.62
2023-12-28 19:41:00,SystemResetWarning,0833.4,5.00,000.00,021.8,021.3,000.0,030.0,023.3,8.3,0000.0,0001.05,0004.70,0000.62
2023-12-28 19:42:00,SystemResetWarning,0833.4,5.00,000.00,021.8,021.3,000.0,030.0,023.3,8.2,0000.0,0001.00,0003.89,0000.61
2023-12-28 19:43:00,SystemResetWarning,0833.4,5.00,000.00,021.9,021.3,000.0,030.0,023.3,8.3,0000.0,0000.99,0003.42,0000.60
2023-12-28 19:44:00,SystemResetWarning,0833.4,5.00,000.00,021.9,021.3,000.0,030.0,023.4,8.1,0000.0,0000.97,0003.33,0000.59
2023-12-28 19:45:00,SystemResetWarning,0833.4,5.01,000.00,021.9,021.3,000.0,030.0,023.4,8.1,0000.0,0000.93,0003.31,0000.58
2023-12-28 19:46:00,SystemResetWarning,0833.4,5.01,000.00,021.9,021.4,000.0,030.0,023.4,8.1,0000.0,0000.92,0003.27,0000.58
2023-12-28 19:47:00,SystemResetWarning,0833.4,4.99,000.00,021.9,021.4,000.0,030.1,023.4,8.1,0000.0,0000.92,0003.24,0000.58
2023-12-28 19:48:00,SystemResetWarning,0833.5,4.99,000.00,021.9,021.4,000.0,030.1,023.4,8.0,0000.0,0000.92,0003.16,0000.58
2023-12-28 19:49:00,SystemResetWarning,0833.6,5.00,000.00,022.0,021.4,000.0,030.1,023.5,8.0,0000.0,0000.94,0002.18,0000.58
2023-12-28 19:50:00,SystemResetWarning,0833.4,5.01,000.00,022.0,021.4,000.0,030.1,023.5,8.1,0000.0,0000.92,0001.89,0000.58
2023-12-28 19:51:00,SystemResetWarning,0833.4,5.00,000.00,022.0,021.5,000.0,030.1,023.5,8.1,0000.0,0000.91,0002.18,0000.58
2023-12-28 19:52:00,SystemResetWarning,0833.4,5.00,000.00,022.0,021.5,000.0,030.1,023.5,8.1,0000.0,0000.89,0002.37,0000.57
2023-12-28 19:53:00,SystemResetWarning,0833.4,5.01,000.00,022.0,021.5,000.0,030.2,023.5,7.9,0000.0,0000.90,0002.48,0000.57
2023-12-28 19:54:00,SystemResetWarning,0833.4,5.00,000.00,022.0,021.5,000.0,030.2,023.5,8.0,0000.0,0000.89,0002.49,0000.57
2023-12-28 19:55:00,SystemResetWarning,0833.4,5.00,000.00,022.1,021.5,000.0,030.2,023.5,8.0,0000.0,0000.86,0002.42,0000.57
2023-12-28 19:56:00,SystemResetWarning,0833.4,4.99,000.00,022.1,021.5,000.0,030.2,023.6,8.1,0000.0,0000.87,0002.48,0000.57
2023-12-28 19:57:00,SystemResetWarning,0833.4,5.00,000.00,022.1,021.5,000.0,030.2,023.6,8.0,0000.0,0000.87,0002.39,0000.57
2023-12-28 19:58:00,SystemResetWarning,0833.3,5.01,000.00,022.1,021.6,000.0,030.2,023.6,8.0,0000.0,0000.84,0002.90,0000.55
2023-12-28 19:59:00,SystemResetWarning,0833.4,5.01,000.00,022.1,021.6,000.0,030.3,023.6,8.0,0000.0,0000.82,0002.90,0000.54
